{"data":{"norad_id":64122,"intl_designator":"2025-110AC","name":"STARLINK-33991","alt_names":[],"object_type":"PAYLOAD","status":"ACTIVE","operator":null,"country":"US","launch_date":"2025-05-23","launch_site_code":"AFWTR","launch_vehicle":null,"mission":null,"orbit_class":"UNKNOWN","rcs_meters":null,"size_class":null,"mass_kg":null,"dimensions":null,"purposes":["comms"],"wikipedia_slug":null,"has_3d_model":false,"image_url":null,"decayed_at":null,"tle_current":{"epoch":"2026-05-25T01:35:49.360128Z","epoch_age_seconds":66533,"freshness":"FRESH","line1":"1 64122U 25110AC  26145.06654352  .00010723  00000+0  35660-3 0  9998","line2":"2 64122  53.1603  31.4636 0001217  94.7485 265.3655 15.31719583 57575","mean_motion":15.31719583,"eccentricity":0.0001217,"inclination_deg":53.1603,"raan_deg":31.4636,"arg_perigee_deg":94.7485,"mean_anomaly_deg":265.3655,"bstar":0.0003566,"rev_number":5757,"period_min":94.011986004621,"perigee_km":469.84811871756,"apogee_km":471.51512116966,"semimajor_km":6848.8186199436,"source":"CELESTRAK","updated_at":"2026-05-25T13:38:20.270305Z"}}}